OK3MS-5 Weather Reports


time (UTC)temp
F
wind
direction
speed
knots
gust
knots
rain 1hr
in
rain 24hr
in
rain mn
in
humidity
%
barometer
mb
20260504021505 51 72 0.0 0.0 0.00 0.00 0.00 73 1013.0
20260504021005 51 72 0.0 0.0 0.00 0.00 0.00 72 1012.8
20260504020508 51 72 0.0 0.0 0.00 0.00 0.00 72 1012.9
20260504020002 51 78 0.0 0.9 0.00 0.00 0.00 71 1012.9
20260504015506 51 78 0.9 1.7 0.00 0.00 0.00 71 1012.9
20260504015005 51 78 1.7 1.7 0.00 0.00 0.00 72 1012.9
20260504014504 52 78 0.0 0.0 0.00 0.00 0.00 71 1012.8
20260504014005 52 78 0.0 0.0 0.00 0.00 0.00 70 1012.8
20260504013503 52 78 0.0 0.9 0.00 0.00 0.00 70 1012.8
20260504013003 52 78 0.0 0.0 0.00 0.00 0.00 70 1012.8
20260504012504 53 78 0.0 4.3 0.00 0.00 0.00 67 1012.6
20260504012003 53 78 0.0 0.0 0.00 0.00 0.00 66 1012.5
20260504011502 53 78 0.0 0.0 0.00 0.00 0.00 70 1012.6
20260504011010 53 78 0.0 0.0 0.00 0.00 0.00 69 1012.6
20260504010504 53 78 0.0 0.9 0.00 0.00 0.00 67 1012.5
20260504010009 54 78 0.0 0.0 0.00 0.00 0.00 64 1012.4
20260504005503 56 78 0.0 0.9 0.00 0.00 0.00 59 1012.3
20260504005004 56 78 0.9 1.7 0.00 0.00 0.00 59 1012.1
20260504004503 56 114 0.0 6.1 0.00 0.00 0.00 58 1012.2
20260504004003 56 72 0.9 3.5 0.00 0.00 0.00 59 1012.2
20260504003509 56 21 1.7 1.7 0.00 0.00 0.00 59 1012.2
20260504003003 56 21 0.9 0.9 0.00 0.00 0.00 59 1012.2
20260504002507 56 21 0.0 0.9 0.00 0.00 0.00 59 1012.3
20260504002004 56 21 0.0 0.9 0.00 0.00 0.00 60 1012.2
20260504001508 55 21 1.7 1.7 0.00 0.00 0.00 60 1012.2
20260504001003 56 21 0.0 0.9 0.00 0.00 0.00 61 1012.3
20260504000503 57 21 0.9 2.6 0.00 0.00 0.00 58 1012.1
20260504000005 57 21 0.9 0.9 0.00 0.00 0.00 57 1011.9
20260503235506 58 90 0.9 2.6 0.00 0.00 0.00 56 1011.6
20260503235010 58 70 0.0 1.7 0.00 0.00 0.00 56 1011.7
20260503234504 58 70 0.9 1.7 0.00 0.00 0.00 55 1011.6
20260503234008 59 70 1.7 1.7 0.00 0.00 0.00 54 1011.6
20260503233510 59 78 0.0 3.5 0.00 0.00 0.00 54 1011.5
20260503233002 59 82 0.9 5.2 0.00 0.00 0.00 54 1011.4
20260503232505 59 53 0.0 5.2 0.00 0.00 0.00 54 1011.4
20260503232002 59 60 1.7 3.5 0.00 0.00 0.00 53 1011.4
20260503231505 59 78 0.0 3.5 0.00 0.00 0.00 53 1011.6
20260503231006 59 64 0.9 6.1 0.00 0.00 0.00 52 1011.4
20260503230503 59 72 0.0 4.3 0.00 0.00 0.00 53 1011.6
20260503230008 60 108 0.0 5.2 0.00 0.00 0.00 52 1011.6
20260503225503 60 69 0.9 7.0 0.00 0.00 0.00 52 1011.5
20260503225007 60 105 0.0 10.4 0.00 0.00 0.00 51 1011.4
20260503224505 60 114 1.7 11.3 0.00 0.00 0.00 51 1011.5
20260503224009 60 92 0.9 7.0 0.00 0.00 0.00 51 1011.5
20260503223504 60 90 1.7 4.3 0.00 0.00 0.00 51 1011.4
20260503223005 60 114 0.9 7.8 0.00 0.00 0.00 51 1011.5
20260503222507 61 114 4.3 6.1 0.00 0.00 0.00 51 1011.6
20260503222008 61 31 1.7 7.0 0.00 0.00 0.00 51 1011.4
20260503221506 61 104 1.7 10.4 0.00 0.00 0.00 50 1011.5
20260503221009 61 96 4.3 4.3 0.00 0.00 0.00 50 1011.5
20260503220505 61 120 4.3 8.7 0.00 0.00 0.00 49 1011.6
20260503220015 61 133 4.3 7.8 0.00 0.00 0.00 50 1011.6
20260503215503 61 126 3.5 7.8 0.00 0.00 0.00 51 1011.6
20260503215007 61 64 0.9 7.8 0.00 0.00 0.00 50 1011.7
20260503214504 61 114 0.0 7.8 0.00 0.00 0.00 50 1011.6
20260503214007 61 48 7.8 9.6 0.00 0.00 0.00 49 1011.6
20260503213502 62 102 4.3 6.1 0.00 0.00 0.00 49 1011.5
20260503213004 62 93 1.7 7.8 0.00 0.00 0.00 49 1011.6
20260503212002 62 66 2.6 8.7 0.00 0.00 0.00 49 1011.7
20260503211003 62 114 2.6 7.8 0.00 0.00 0.00 49 1011.7
20260503210504 62 78 0.0 5.2 0.00 0.00 0.00 49 1011.8
20260503210005 62 121 1.7 5.2 0.00 0.00 0.00 49 1011.9
20260503205504 62 76 2.6 7.8 0.00 0.00 0.00 48 1011.9
20260503205003 62 127 0.9 10.4 0.00 0.00 0.00 48 1011.9
20260503204510 62 102 4.3 8.7 0.00 0.00 0.00 48 1012.1
20260503204003 63 64 1.7 7.8 0.00 0.00 0.00 48 1011.9
20260503203504 63 120 1.7 7.0 0.00 0.00 0.00 47 1012.0
20260503203009 63 96 6.1 7.0 0.00 0.00 0.00 47 1012.0
20260503202502 63 116 1.7 7.8 0.00 0.00 0.00 47 1012.0
20260503202003 63 64 1.7 7.8 0.00 0.00 0.00 47 1011.8
20260503201504 63 108 7.0 12.2 0.00 0.00 0.00 46 1012.1
20260503201003 63 105 5.2 10.4 0.00 0.00 0.00 47 1012.0
20260503200503 63 82 1.7 1.7 0.00 0.00 0.00 47 1012.0
20260503200003 64 104 0.9 2.6 0.00 0.00 0.00 47 1012.0
20260503195509 64 114 0.0 1.7 0.00 0.00 0.00 47 1012.0
20260503195005 64 84 7.0 7.0 0.00 0.00 0.00 46 1012.0
20260503194504 64 128 5.2 6.1 0.00 0.00 0.00 47 1012.0
20260503194008 64 72 2.6 7.0 0.00 0.00 0.00 46 1012.0
20260503193505 64 90 1.7 1.7 0.00 0.00 0.00 47 1012.0
20260503193010 64 121 7.8 7.8 0.00 0.00 0.00 46 1012.0
20260503192503 64 78 1.7 1.7 0.00 0.00 0.00 46 1012.1
20260503192007 64 54 0.0 0.0 0.00 0.00 0.00 47 1012.0
20260503191504 64 54 0.0 1.7 0.00 0.00 0.00 46 1011.8
20260503191003 64 156 0.0 0.9 0.00 0.00 0.00 46 1012.0
20260503190503 65 156 0.0 0.9 0.00 0.00 0.00 46 1011.9
20260503190004 65 156 5.2 6.1 0.00 0.00 0.00 45 1011.7
20260503185509 65 96 0.0 3.5 0.00 0.00 0.00 46 1011.7
20260503185003 65 84 3.5 7.0 0.00 0.00 0.00 45 1011.7
20260503184506 66 102 0.0 7.8 0.00 0.00 0.00 45 1011.6
20260503184003 66 111 1.7 5.2 0.00 0.00 0.00 44 1011.4
20260503183507 66 122 2.6 8.7 0.00 0.00 0.00 44 1011.5
20260503183003 67 138 7.0 8.7 0.00 0.00 0.00 43 1011.4
20260503182505 66 110 0.0 2.6 0.00 0.00 0.00 43 1011.3
20260503182006 67 94 0.0 3.5 0.00 0.00 0.00 44 1011.1
20260503181504 67 132 0.0 7.0 0.00 0.00 0.00 43 1011.0
20260503181004 68 109 0.0 8.7 0.00 0.00 0.00 42 1010.9
20260503180503 68 42 5.2 10.4 0.00 0.00 0.00 43 1010.9
20260503180002 68 76 1.7 1.7 0.00 0.00 0.00 42 1010.9
20260503175503 68 120 0.0 4.3 0.00 0.00 0.00 42 1011.0
20260503175004 69 122 5.2 7.0 0.00 0.00 0.00 41 1010.8
20260503174505 69 138 3.5 4.3 0.00 0.00 0.00 41 1010.8
20260503174008 70 88 0.0 7.0 0.00 0.00 0.00 40 1010.8
20260503173503 70 162 1.7 7.8 0.00 0.00 0.00 40 1010.8
20260503173005 70 96 3.5 5.2 0.00 0.00 0.00 40 1010.9
20260503172504 71 103 5.2 7.0 0.00 0.00 0.00 39 1010.7
20260503172004 71 132 1.7 9.6 0.00 0.00 0.00 39 1010.6
20260503171502 72 71 1.7 7.8 0.00 0.00 0.00 38 1010.7
20260503171003 72 191 0.9 6.1 0.00 0.00 0.00 38 1010.6
20260503170504 72 132 5.2 7.8 0.00 0.00 0.00 38 1010.6
20260503151006 76 139 6.1 9.6 0.00 0.00 0.00 28 1010.6
20260503150503 76 113 4.3 11.3 0.00 0.00 0.00 29 1010.6
20260503131003 76 182 6.1 9.6 0.00 0.00 0.00 29 1012.0
20260503130504 76 150 6.1 7.0 0.00 0.00 0.00 32 1012.0
20260503110505 72 162 3.5 10.4 0.00 0.00 0.00 37 1013.6
20260503090503 67 132 1.7 7.8 0.00 0.00 0.00 43 1015.3
20260503081503 66 122 7.8 7.8 0.00 0.00 0.00 44 1015.6
20260503081003 65 49 2.6 10.4 0.00 0.00 0.00 44 1015.8
20260503080504 65 97 3.5 4.3 0.00 0.00 0.00 45 1015.8
20260503072504 63 120 4.3 10.4 0.00 0.00 0.00 46 1016.0
20260503072004 63 100 5.2 7.8 0.00 0.00 0.00 47 1016.0
20260503071504 62 120 7.8 7.8 0.00 0.00 0.00 47 1016.1
20260503071003 62 102 0.9 6.1 0.00 0.00 0.00 47 1016.1
20260503070505 62 60 1.7 7.8 0.00 0.00 0.00 47 1016.2
20260503055004 56 42 0.9 1.7 0.00 0.00 0.00 55 1016.8
20260503054503 56 38 0.0 0.0 0.00 0.00 0.00 58 1016.8
20260503054006 55 38 0.0 0.0 0.00 0.00 0.00 60 1016.8
20260503053506 53 38 0.0 0.0 0.00 0.00 0.00 63 1017.0
20260503053004 52 38 0.0 1.7 0.00 0.00 0.00 65 1017.1
20260503052504 52 38 0.9 1.7 0.00 0.00 0.00 70 1017.1
20260503052009 51 38 1.7 2.6 0.00 0.00 0.00 70 1017.2
20260503051503 51 38 0.9 1.7 0.00 0.00 0.00 68 1017.2
20260503051003 50 38 0.9 0.9 0.00 0.00 0.00 69 1017.2
20260503050504 49 38 0.0 0.0 0.00 0.00 0.00 71 1017.5
20260503050011 48 38 0.0 0.9 0.00 0.00 0.00 71 1017.5
20260503045504 48 38 0.0 0.0 0.00 0.00 0.00 72 1017.5
20260503045009 47 38 0.9 1.7 0.00 0.00 0.00 71 1017.6
20260503044503 46 38 0.9 2.6 0.00 0.00 0.00 72 1017.8
20260503044003 45 38 1.7 1.7 0.00 0.00 0.00 74 1017.8
20260503043504 44 38 0.0 0.0 0.00 0.00 0.00 75 1017.9
20260503043009 44 38 0.0 0.0 0.00 0.00 0.00 80 1018.1
20260503042504 43 38 0.0 0.0 0.00 0.00 0.00 81 1018.1
20260503042002 44 38 0.0 0.0 0.00 0.00 0.00 80 1018.1
20260503041504 43 38 0.0 0.0 0.00 0.00 0.00 78 1018.0
20260503041002 43 38 0.0 0.0 0.00 0.00 0.00 77 1018.2
20260503040502 42 38 0.0 0.0 0.00 0.00 0.00 78 1018.1
20260503040005 42 38 0.0 0.0 0.00 0.00 0.00 79 1018.1
20260503035504 42 38 0.0 0.0 0.00 0.00 0.00 78 1018.2
20260503035004 43 38 0.0 0.0 0.00 0.00 0.00 82 1018.2
20260503034508 42 38 0.0 0.0 0.00 0.00 0.00 78 1018.2
20260503034004 43 42 0.0 0.0 0.00 0.00 0.00 79 1018.1
20260503033507 43 42 0.0 0.0 0.00 0.00 0.00 79 1017.9
20260503033003 43 38 0.0 0.0 0.00 0.00 0.00 82 1018.0
20260503032509 43 38 0.0 0.0 0.00 0.00 0.00 81 1018.1
20260503032005 43 38 0.0 0.0 0.00 0.00 0.00 80 1018.0
20260503031508 43 42 0.0 0.0 0.00 0.00 0.00 78 1018.0
20260503031004 42 38 0.0 0.9 0.00 0.00 0.00 81 1018.1
20260503030507 43 38 0.9 1.7 0.00 0.00 0.00 79 1018.1
20260503030003 43 38 0.0 1.7 0.00 0.00 0.00 80 1017.9
20260503025509 44 38 0.0 0.9 0.00 0.00 0.00 79 1018.0
20260503025003 44 38 0.9 1.7 0.00 0.00 0.00 76 1018.1
20260503024508 44 38 0.9 1.7 0.00 0.00 0.00 76 1017.9
20260503024003 44 38 0.9 1.7 0.00 0.00 0.00 75 1017.9
20260503023503 44 38 0.0 2.6 0.00 0.00 0.00 74 1018.0
20260503023003 44 42 0.9 3.5 0.00 0.00 0.00 74 1018.0
20260503022509 44 72 1.7 1.7 0.00 0.00 0.00 74 1018.1
20260503022005 44 96 0.0 1.7 0.00 0.00 0.00 75 1018.1